Temperature
20 20 20 20 23 24 23 22 23 23 22 21 21 21 22 21 21 20 17 16 16 16 16 17 17 17 17 17 17 17 17 17 17 17 17 17 17 17 17 17 17 17 17 17 17 17 17 17 17
20 20 20 22 25 24 23 22 22 22 21 21 21 21 21 20 18 17 16 16 16 16 16 16 17 17 17 17 17 17 17 16 16 16 17 17 17 17 17 17 17 17 17 17 17 17 17 17 17
20 20 21 24 24 24 23 22 22 21 21 21 21 20 20 19 17 17 16 16 16 16 16 16 17 17 17 17 17 17 16 16 16 16 16 16 16 16 16 17 17 17 17 17 17 17 17 17 17
20 21 23 24 23 22 23 22 22 22 21 21 21 20 19 17 17 17 16 16 16 16 16 16 17 17 16 16 16 16 16 16 16 16 16 16 16 16 16 17 17 17 17 17 17 17 17 17 17
20 23 24 24 23 22 23 22 22 23 22 21 21 20 18 17 17 17 16 16 16 16 16 16 16 16 16 16 16 16 16 16 16 16 16 16 16 16 16 16 16 16 16 16 16 16 16 17 17
22 24 24 23 22 22 22 22 22 22 22 21 20 20 18 17 17 16 16 16 16 16 16 16 16 16 16 16 16 16 16 16 16 16 16 16 16 16 16 16 16 16 16 16 16 16 16 16 17
23 24 23 23 22 22 22 21 22 22 22 21 20 20 18 17 17 16 16 16 16 16 16 16 16 16 16 16 16 16 16 16 16 16 16 16 16 16 16 16 16 16 16 16 16 16 16 16 16
21 24 23 23 22 22 22 21 21 21 21 20 19 20 19 17 17 16 16 16 16 16 16 16 16 16 16 16 16 16 16 16 16 16 16 16 16 16 16 16 16 16 16 16 16 16 16 16 16
21 24 23 23 22 22 22 22 21 20 20 20 19 19 18 17 17 16 16 16 16 16 16 16 16 16 16 16 16 16 16 16 16 16 16 16 15 15 15 16 16 16 16 16 16 16 16 16 16
23 23 22 23 23 23 22 22 21 21 21 20 19 18 17 17 17 17 17 16 16 16 16 16 16 16 16 16 16 16 16 15 15 15 15 15 15 15 15 16 16 16 16 16 16 16 16 15 15
23 22 22 22 22 22 22 21 21 22 22 21 20 18 17 17 17 17 17 16 16 16 16 16 16 16 16 16 16 16 15 15 15 15 15 15 16 16 15 15 15 15 15 15 15 15 15 15 15
22 22 22 22 21 21 21 21 21 21 20 20 19 18 17 17 17 17 17 16 16 16 16 16 16 16 16 16 16 16 16 15 15 15 15 15 15 15 15 15 15 15 15 15 15 15 15 15 15
23 22 21 21 21 21 21 21 21 20 19 19 18 18 17 17 17 17 17 16 16 16 16 16 16 16 16 16 16 16 15 15 15 15 15 15 15 15 15 15 15 15 15 15 15 15 15 15 15
22 21 21 21 21 21 21 21 21 20 19 18 18 18 17 17 17 17 17 17 17 16 16 16 16 16 16 16 16 16 15 15 15 15 15 15 15 15 15 15 15 15 15 15 15 15 15 15 15
21 22 22 22 21 21 21 21 21 20 19 19 18 18 18 17 17 17 17 17 17 16 16 16 16 16 16 16 16 15 15 15 15 15 15 15 15 15 15 15 15 15 15 15 15 15 15 15 15
22 23 22 22 22 21 22 21 21 19 19 19 19 18 18 17 17 17 17 17 17 16 16 16 16 16 16 15 15 15 15 15 15 15 15 15 15 15 15 15 15 15 15 15 15 14 15 15 15
23 22 22 22 22 22 22 22 21 20 20 20 19 19 18 18 17 17 17 17 16 16 16 16 16 16 15 15 15 15 15 15 15 15 15 15 15 15 15 15 15 15 15 15 14 14 15 14 14
22 23 22 22 22 22 22 22 22 20 20 20 20 19 18 18 18 17 17 16 16 16 16 16 15 15 15 15 15 15 15 15 15 15 15 15 15 15 15 15 15 15 15 14 14 14 14 14 14
23 23 22 22 22 22 22 22 22 21 20 20 20 20 19 19 18 17 17 16 16 16 16 16 15 15 15 15 15 15 15 15 15 15 15 15 15 15 15 15 15 15 15 14 14 14 14 14 14
23 23 22 22 22 22 22 22 23 22 21 21 20 20 19 19 18 17 17 16 16 16 16 16 15 15 15 15 15 15 15 15 15 15 15 15 15 15 15 15 15 15 15 14 14 14 14 14 14
23 23 22 22 22 22 22 23 23 22 21 20 20 20 20 19 19 17 17 16 16 16 16 16 15 15 15 15 15 15 15 15 15 15 15 15 15 15 15 15 15 15 15 14 14 14 14 14 14
22 22 22 22 22 22 22 22 23 23 22 22 21 20 20 19 18 18 17 17 16 16 16 16 15 15 15 15 15 15 15 15 15 15 15 15 15 15 15 15 15 15 15 15 14 14 14 14 14
22 22 22 22 23 23 23 23 23 23 23 23 22 21 20 19 18 18 17 17 16 16 16 16 16 15 15 15 15 15 15 15 15 15 15 15 15 15 15 15 15 15 15 15 15 14 14 14 14
22 22 22 23 23 22 23 23 23 24 23 23 22 21 20 19 18 18 17 17 16 16 16 16 16 15 15 15 15 15 15 15 15 15 15 15 15 15 15 15 15 15 15 15 14 14 15 15 15
23 23 22 23 22 23 23 23 23 24 24 23 23 22 20 20 19 18 17 17 17 16 16 16 16 16 15 15 15 15 15 15 15 15 15 15 15 15 15 15 15 15 15 15 15 15 15 14 14
23 23 22 22 22 23 23 23 24 24 23 22 22 21 20 20 19 18 18 17 17 17 16 16 16 16 16 15 15 15 15 15 15 15 15 15 15 15 15 15 15 15 15 15 15 14 14 14 14
23 23 23 23 23 23 23 23 24 24 23 23 22 21 21 20 19 18 18 17 17 17 17 16 16 16 16 16 15 15 15 15 15 15 15 15 15 15 15 15 15 15 14 14 14 14 14 14 14
23 23 23 23 22 22 23 23 24 23 23 23 23 22 21 20 19 18 18 17 17 17 17 17 16 16 16 16 16 16 15 15 15 15 15 15 15 15 15 15 14 14 14 14 14 14 14 14 14
22 22 23 23 23 22 22 23 24 24 23 23 23 21 20 20 19 19 18 17 17 17 17 17 16 16 16 16 16 16 15 15 15 15 15 15 15 15 15 15 14 14 14 14 14 14 14 14 14
23 23 23 22 22 22 22 23 24 23 23 22 22 21 20 19 19 18 18 17 17 17 17 17 17 16 16 16 16 16 16 15 15 15 15 15 15 15 15 15 15 14 14 14 14 14 14 14 14
Wind_Speed
1 1 2 2 2 2 5 5 4 4 4 5 5 4 5 5 4 4 4 3 3 4 4 6 6 7 7 8 8 8 8 8 8 7 7 7 8 9 9 9 9 9 9 9 10 10 11 11 11
1 1 2 2 1 4 5 4 5 6 4 3 4 4 5 6 6 5 4 4 3 4 5 6 7 8 8 8 7 7 7 8 7 8 8 8 8 8 9 9 9 9 9 9 9 10 10 10 11
1 2 1 0 3 4 5 5 5 5 4 2 3 4 4 4 4 4 4 4 4 5 6 7 7 8 8 7 7 7 7 7 8 8 8 9 9 9 8 9 9 9 9 9 10 10 10 10 10
2 2 1 3 8 7 5 4 3 4 4 4 3 4 5 5 3 5 5 4 5 6 7 8 7 8 8 7 7 7 7 7 8 8 8 9 9 9 8 9 9 9 9 10 10 10 9 9 9
2 1 3 5 6 5 5 4 3 3 3 4 3 4 5 5 6 7 5 5 6 6 7 8 8 7 7 7 8 8 8 8 8 8 9 9 9 9 9 9 9 9 10 10 10 9 9 9 9
1 1 3 5 6 5 4 3 3 4 5 4 4 4 4 5 6 6 5 5 6 6 6 8 8 7 7 7 7 8 9 9 9 9 8 8 9 9 9 9 9 9 9 9 9 9 9 9 9
1 2 4 6 5 5 4 3 3 3 4 4 2 3 5 6 5 6 5 5 5 6 6 6 6 7 7 7 7 8 9 9 9 9 9 9 9 9 10 10 9 9 9 9 9 10 10 9 9
1 2 5 4 4 4 4 3 3 3 4 4 1 2 4 7 7 6 6 5 5 5 6 6 6 5 5 7 9 9 9 9 9 9 8 8 8 9 8 9 10 9 9 9 9 10 10 10 9
1 2 4 3 3 4 3 3 3 2 4 3 3 3 5 9 9 8 6 5 5 5 5 5 5 5 6 6 8 8 8 8 7 9 7 4 6 7 7 10 9 9 9 9 9 10 9 9 10
0 3 4 3 2 3 3 2 3 3 3 3 4 5 8 9 9 8 7 6 5 5 4 3 4 5 6 6 6 6 7 7 7 7 7 6 6 6 7 9 9 9 9 9 9 8 6 4 7
2 4 4 3 2 2 3 2 2 1 2 2 4 7 9 9 8 7 6 5 4 4 3 3 3 5 5 5 5 4 5 5 6 6 6 6 6 5 5 5 6 7 6 7 7 5 6 7 7
4 4 2 2 2 2 3 2 2 2 3 2 5 8 9 9 8 6 6 5 4 4 3 3 3 4 4 5 4 3 4 4 4 4 5 4 4 4 5 4 5 5 5 5 5 5 6 7 8
4 4 3 2 3 3 4 3 2 2 2 4 7 9 8 7 6 5 4 4 4 4 3 3 3 3 4 4 3 3 3 3 4 4 3 4 4 4 4 4 4 5 5 5 4 6 6 7 8
4 4 3 3 3 3 3 3 2 2 4 6 7 7 7 6 5 5 5 5 5 4 4 4 4 3 3 3 3 3 3 3 4 3 3 4 4 4 3 4 4 4 4 4 4 6 6 6 7
4 4 4 3 2 1 2 2 2 2 5 6 6 6 6 5 5 5 5 5 5 5 4 5 3 3 3 3 3 4 3 3 3 3 3 4 4 4 4 4 4 4 5 5 5 6 6 6 6
3 2 2 2 1 1 2 2 3 3 4 5 5 5 5 5 5 4 5 5 5 5 5 5 4 3 3 3 3 3 3 3 3 3 3 3 4 4 4 3 3 4 4 4 4 4 5 5 5
2 1 2 2 1 1 1 1 2 3 4 4 4 4 5 5 5 4 5 5 6 6 6 6 4 4 3 2 3 2 3 3 3 3 3 3 4 3 3 3 3 4 3 3 3 4 4 5 5
1 1 1 1 1 1 1 1 1 3 4 4 4 4 5 5 5 5 5 6 7 7 6 6 4 3 3 2 2 2 2 2 3 3 2 3 3 3 3 3 3 3 3 3 4 4 4 4 4
1 1 1 1 1 1 1 2 0 2 4 5 5 5 5 5 5 5 6 7 7 7 7 6 5 4 3 2 2 2 2 1 2 2 2 2 2 3 3 3 3 2 3 3 4 3 4 3 3
3 2 0 1 1 1 2 2 1 2 4 4 5 5 6 6 6 7 8 8 7 7 7 6 5 4 3 2 1 1 1 1 1 1 2 2 2 3 3 3 3 3 3 3 3 2 2 2 1
3 3 2 1 1 2 3 1 1 2 3 4 5 6 6 7 7 9 9 9 8 8 7 6 5 4 3 3 2 2 2 2 2 2 1 2 2 3 3 3 3 3 2 2 2 2 1 1 1
3 2 3 3 3 0 2 1 1 1 2 3 5 6 7 7 8 9 10 10 9 8 7 7 6 5 4 3 3 3 2 1 1 1 2 2 3 3 2 2 3 2 2 2 2 2 1 0 1
1 1 3 3 3 2 2 2 1 1 0 1 3 5 7 8 8 9 10 10 9 8 8 7 7 5 4 4 3 3 2 1 1 1 2 2 3 2 2 2 2 2 2 2 2 2 1 1 1
3 4 3 4 4 2 1 3 1 1 1 0 1 4 6 7 9 9 9 9 8 8 8 7 7 6 5 4 4 4 3 3 2 2 2 2 2 2 2 2 2 2 2 2 2 2 2 2 2
4 4 3 3 3 1 1 2 1 2 2 2 1 3 5 7 9 10 10 10 9 9 8 8 8 7 6 6 5 5 4 4 3 3 3 3 2 2 2 2 2 2 2 2 2 2 2 2 2
5 5 3 2 1 0 2 2 1 2 1 1 1 2 5 7 8 10 10 10 10 10 9 8 8 7 7 6 6 5 5 4 3 3 3 3 2 2 3 2 3 3 3 3 2 2 2 2 2
4 5 3 3 2 3 2 1 1 1 1 1 2 3 4 6 8 9 10 10 10 10 9 9 8 7 7 7 6 6 5 4 4 4 3 3 3 2 3 3 3 3 3 2 2 2 2 2 2
3 3 4 4 3 3 2 3 2 1 1 2 2 3 4 5 7 9 9 9 9 9 9 8 7 7 6 6 6 5 5 5 4 4 4 4 4 3 4 4 4 4 3 3 2 1 1 2 2
5 5 5 4 4 4 3 0 1 1 1 1 1 2 4 5 7 8 8 8 8 8 8 8 7 7 6 6 6 6 5 5 5 4 4 4 4 4 4 4 4 3 3 3 3 2 2 2 2
5 5 6 5 4 4 4 1 3 0 1 1 1 2 3 5 6 7 8 8 8 8 8 8 8 7 7 6 6 6 5 6 5 5 5 5 5 5 5 4 4 4 3 3 3 2 2 2 1
Wind_Direction
220 281 271 253 209 105 73 57 46 62 63 55 56 61 62 44 30 69 88 93 81 80 78 85 76 76 76 76 72 72 75 78 79 82 82 84 90 91 89 86 86 85 82 80 80 81 80 79 77
298 299 255 252 214 107 83 65 60 53 74 86 66 63 68 66 59 83 99 91 86 84 78 73 76 77 77 74 71 69 75 79 80 80 81 83 88 89 89 86 85 85 86 87 86 86 84 80 77
246 275 288 64 67 68 88 78 75 79 74 70 72 55 52 64 72 86 94 106 95 85 80 80 73 74 75 70 68 69 75 80 83 81 80 81 84 87 86 85 87 87 88 88 88 87 84 82 80
256 231 197 93 86 66 71 81 95 104 84 64 82 82 79 63 73 94 108 108 98 89 85 82 71 69 69 68 66 68 78 82 83 80 79 81 83 83 84 82 85 87 90 90 86 85 84 81 81
263 252 125 101 89 81 71 72 83 77 80 78 79 91 92 83 94 106 111 104 96 89 85 87 74 67 69 71 68 68 74 79 81 79 79 81 81 80 80 79 81 84 86 86 84 83 81 81 81
237 204 131 108 99 90 78 80 82 77 85 88 86 96 95 109 115 114 110 102 95 90 86 90 89 76 75 77 72 73 74 76 78 82 83 82 83 82 79 79 80 82 85 87 85 83 80 80 78
39 102 104 110 109 99 80 78 72 81 85 77 76 105 120 131 122 121 115 108 98 91 88 87 90 100 107 92 75 75 73 75 77 82 81 81 82 81 80 79 78 79 81 85 86 85 84 82 77
1 132 122 112 110 93 90 88 68 60 80 87 86 104 133 144 136 127 117 111 108 99 90 83 81 83 93 98 85 77 75 76 79 80 79 86 95 93 87 83 76 77 82 86 88 86 84 82 78
272 144 116 107 105 100 109 99 81 82 101 96 72 58 106 135 140 134 128 122 116 102 90 82 79 83 81 85 90 91 88 77 87 88 86 92 87 86 90 73 74 77 81 85 85 83 84 92 91
53 105 94 88 86 105 123 104 105 135 117 106 103 100 122 141 145 142 141 133 128 118 104 88 85 86 86 86 86 79 80 74 69 68 70 71 74 73 78 92 84 82 86 92 85 93 106 99 89
75 86 98 94 89 121 132 116 104 125 104 93 127 137 143 149 149 150 147 135 130 128 112 93 90 87 87 91 82 74 79 78 71 65 71 72 77 85 82 90 98 93 93 87 93 96 78 78 76
104 88 82 95 102 122 122 122 104 49 30 61 125 142 147 155 158 163 158 145 144 135 124 113 108 104 94 85 84 81 80 76 73 67 67 71 74 77 80 79 76 77 79 76 73 73 77 80 81
107 104 86 102 118 107 108 96 88 59 64 112 128 141 149 149 151 155 159 159 151 146 145 124 109 96 92 85 85 84 76 70 78 69 68 75 81 86 88 87 79 76 79 84 78 77 74 75 75
97 110 111 115 122 114 109 95 95 86 116 128 136 144 151 154 160 160 167 167 162 159 147 127 113 102 91 90 86 78 75 80 66 67 70 75 83 91 92 93 84 81 80 78 78 83 82 78 76
131 126 119 110 124 132 171 102 87 111 141 139 145 148 151 158 167 173 168 167 161 157 145 126 114 105 91 79 75 75 70 75 72 67 66 76 80 96 95 92 96 92 91 93 89 87 85 85 83
167 158 120 106 118 175 234 64 85 127 154 150 152 154 163 175 183 177 175 176 165 158 146 133 130 115 95 90 83 77 73 68 70 66 56 75 85 88 91 91 94 100 97 97 97 97 94 87 81
168 136 89 109 116 219 241 30 92 154 170 168 165 166 177 180 182 178 176 175 161 160 151 144 136 125 108 99 94 77 77 72 70 70 58 64 78 83 93 90 94 106 105 102 105 101 95 91 86
134 131 94 75 96 227 239 299 120 168 188 191 182 180 183 184 182 175 171 171 163 162 156 148 142 136 122 121 120 104 83 81 75 69 64 54 67 77 91 105 110 110 113 108 106 107 96 90 93
218 199 99 46 37 272 292 313 294 187 198 201 195 192 189 187 174 164 165 168 166 167 168 161 158 154 146 139 152 129 114 107 87 75 73 73 77 87 93 98 106 109 106 112 115 114 110 103 109
210 207 179 90 55 289 313 313 300 203 215 218 212 201 195 186 176 167 170 170 172 169 171 166 168 169 163 156 150 146 126 121 93 93 101 92 95 93 95 97 106 112 111 118 115 119 118 109 109
215 242 272 291 281 228 289 268 133 152 199 213 217 214 207 199 190 179 179 177 176 176 176 177 182 176 171 166 158 155 134 144 132 126 107 86 87 84 90 98 112 113 121 118 117 133 147 131 111
229 230 243 246 260 288 303 324 58 142 192 204 209 209 208 203 199 187 183 185 184 182 185 188 187 185 180 184 195 191 187 157 139 135 123 123 104 91 91 100 105 112 108 117 123 113 120 112 123
232 167 218 238 252 255 260 287 70 120 262 193 200 203 206 201 197 191 189 189 186 181 186 192 187 187 187 193 194 206 200 171 138 127 135 132 109 100 103 101 105 108 111 111 104 103 82 72 50
167 180 189 215 235 251 278 277 351 56 330 356 190 196 193 191 190 189 186 183 181 180 184 187 187 188 190 198 200 204 193 185 171 168 152 148 131 124 120 118 120 119 114 113 102 100 89 60 60
207 227 224 211 212 231 106 260 321 21 334 291 251 198 186 184 184 183 182 182 182 183 186 188 190 192 194 200 204 203 202 201 196 191 168 166 156 147 141 139 138 123 112 106 106 104 92 100 85
208 236 260 272 263 231 193 254 29 17 324 262 223 183 181 180 183 183 182 183 185 186 188 190 190 193 195 201 205 205 200 204 205 199 190 185 174 161 155 152 137 127 125 126 119 110 99 97 99
206 222 268 277 272 264 229 228 196 117 91 120 147 155 168 178 181 182 181 184 185 187 189 191 190 194 195 200 202 202 200 200 200 199 192 186 181 165 157 152 143 133 133 136 135 118 109 100 95
246 200 215 240 257 255 247 247 260 191 102 112 131 145 157 171 178 179 181 185 187 187 188 190 193 198 197 198 197 197 201 199 202 201 192 186 181 170 166 164 160 154 150 145 138 128 109 119 107
190 201 225 236 256 274 275 218 39 250 179 150 139 141 157 169 176 178 179 182 183 185 186 188 192 196 195 195 194 194 196 197 198 199 198 192 184 179 175 174 172 164 161 157 154 160 155 148 138
231 230 228 243 237 246 270 272 92 82 174 170 150 141 149 161 169 174 176 177 179 185 189 190 192 191 191 193 192 193 190 195 199 195 195 191 187 187 185 176 176 171 177 177 172 174 176 172 171
Height
1518 1518 1518 1519 1517 1516 1522 1524 1521 1523 1524 1527 1527 1526 1526 1528 1530 1537 1537 1535 1536 1536 1536 1535 1535 1535 1535 1535 1534 1534 1534 1533 1533 1533 1533 1532 1532 1532 1532 1532 1532 1532 1532 1532 1533 1533 1533 1533 1533
1519 1518 1520 1519 1514 1520 1527 1525 1525 1526 1528 1529 1528 1528 1529 1531 1534 1536 1536 1536 1537 1537 1537 1537 1536 1536 1536 1536 1536 1535 1535 1534 1534 1534 1534 1534 1534 1534 1534 1534 1534 1533 1533 1534 1534 1534 1534 1534 1534
1519 1519 1521 1517 1517 1522 1527 1526 1527 1528 1529 1529 1530 1531 1532 1534 1536 1537 1537 1537 1538 1538 1538 1538 1537 1537 1537 1537 1537 1536 1536 1536 1535 1535 1535 1535 1535 1535 1535 1535 1535 1535 1535 1535 1535 1535 1535 1536 1536
1521 1522 1521 1518 1524 1525 1525 1527 1528 1528 1529 1530 1531 1532 1535 1537 1537 1538 1538 1539 1539 1539 1539 1539 1539 1538 1538 1538 1538 1538 1537 1537 1537 1537 1537 1537 1537 1537 1537 1537 1536 1536 1536 1536 1536 1536 1536 1537 1537
1521 1521 1518 1522 1525 1526 1527 1528 1528 1528 1529 1531 1532 1533 1536 1538 1538 1538 1539 1540 1540 1540 1540 1540 1540 1539 1539 1540 1539 1539 1539 1538 1538 1538 1538 1538 1538 1538 1538 1538 1538 1537 1537 1537 1537 1537 1537 1537 1538
1523 1519 1520 1525 1527 1527 1528 1530 1529 1529 1530 1532 1533 1534 1537 1539 1539 1539 1540 1541 1541 1541 1542 1541 1541 1541 1541 1541 1541 1540 1540 1540 1539 1539 1539 1539 1539 1539 1539 1539 1539 1539 1539 1538 1539 1539 1538 1539 1538
1523 1520 1522 1525 1528 1528 1530 1531 1530 1530 1531 1533 1534 1535 1537 1539 1540 1540 1541 1541 1542 1542 1543 1543 1543 1543 1542 1542 1542 1542 1542 1541 1541 1541 1541 1541 1541 1541 1541 1541 1540 1540 1540 1540 1540 1540 1539 1539 1539
1524 1522 1524 1525 1528 1530 1531 1532 1532 1532 1533 1535 1535 1535 1538 1540 1540 1541 1542 1543 1543 1544 1544 1544 1544 1545 1545 1545 1544 1544 1544 1543 1543 1543 1543 1543 1543 1543 1542 1542 1542 1541 1541 1541 1541 1541 1540 1540 1540
1525 1523 1526 1527 1528 1530 1531 1532 1533 1534 1534 1535 1536 1537 1538 1539 1540 1541 1543 1544 1545 1545 1545 1545 1546 1546 1546 1547 1546 1546 1546 1545 1545 1545 1545 1545 1546 1545 1545 1544 1543 1543 1542 1542 1542 1542 1542 1542 1542
1525 1524 1527 1528 1528 1529 1531 1532 1533 1533 1534 1535 1537 1538 1538 1539 1541 1542 1543 1545 1545 1546 1546 1547 1547 1547 1548 1548 1548 1548 1548 1548 1548 1547 1547 1547 1547 1546 1546 1545 1544 1544 1544 1543 1543 1543 1543 1544 1544
1525 1526 1528 1530 1531 1531 1532 1533 1533 1533 1533 1535 1536 1538 1539 1540 1542 1543 1544 1546 1546 1547 1547 1548 1548 1549 1549 1549 1550 1550 1550 1549 1549 1549 1549 1548 1548 1548 1547 1547 1547 1546 1546 1545 1545 1546 1546 1546 1545
1527 1529 1530 1531 1532 1532 1532 1533 1534 1534 1535 1536 1537 1538 1539 1540 1542 1543 1545 1546 1547 1548 1548 1549 1549 1550 1550 1551 1551 1551 1551 1551 1551 1550 1550 1550 1549 1549 1549 1549 1548 1548 1547 1547 1547 1547 1547 1547 1547
1528 1530 1532 1532 1533 1533 1534 1534 1535 1536 1536 1537 1537 1538 1540 1541 1542 1544 1545 1547 1547 1548 1549 1550 1550 1551 1551 1551 1552 1552 1552 1552 1552 1551 1552 1551 1551 1550 1550 1550 1549 1549 1549 1548 1548 1549 1548 1548 1548
1530 1531 1532 1533 1533 1534 1534 1534 1535 1536 1536 1537 1538 1539 1540 1541 1543 1544 1545 1546 1547 1548 1549 1550 1551 1552 1552 1553 1553 1553 1553 1553 1553 1553 1553 1552 1552 1551 1551 1551 1551 1551 1550 1550 1550 1550 1550 1550 1550
1531 1530 1531 1532 1533 1533 1534 1533 1534 1536 1536 1537 1539 1540 1541 1542 1543 1544 1545 1546 1547 1548 1549 1550 1551 1552 1553 1553 1554 1554 1554 1554 1554 1554 1554 1553 1553 1553 1552 1552 1552 1552 1552 1552 1552 1552 1552 1551 1551
1529 1529 1531 1532 1532 1533 1534 1535 1534 1536 1536 1537 1538 1539 1541 1542 1543 1544 1544 1546 1547 1548 1549 1550 1551 1552 1553 1554 1554 1554 1555 1555 1555 1555 1554 1554 1554 1554 1553 1553 1553 1553 1553 1553 1553 1553 1553 1553 1553
1528 1531 1532 1531 1532 1532 1532 1533 1534 1535 1536 1536 1538 1539 1540 1541 1542 1543 1544 1545 1546 1548 1549 1551 1552 1553 1553 1554 1554 1555 1555 1555 1555 1555 1555 1555 1555 1555 1555 1554 1554 1554 1554 1554 1555 1555 1555 1555 1555
1531 1530 1531 1531 1531 1531 1531 1531 1532 1534 1535 1535 1536 1537 1539 1540 1542 1543 1543 1545 1546 1548 1549 1551 1552 1553 1554 1555 1555 1556 1556 1556 1556 1556 1556 1556 1556 1556 1555 1555 1555 1555 1555 1555 1556 1555 1555 1556 1556
1527 1529 1531 1530 1530 1531 1530 1529 1529 1532 1533 1534 1535 1536 1537 1539 1541 1542 1543 1545 1546 1548 1549 1550 1552 1553 1554 1555 1556 1556 1557 1557 1557 1557 1557 1556 1557 1556 1556 1556 1556 1556 1556 1556 1557 1557 1557 1557 1557
1528 1529 1530 1530 1530 1530 1529 1528 1527 1529 1531 1532 1533 1534 1536 1538 1540 1541 1543 1544 1546 1548 1549 1550 1552 1553 1554 1555 1556 1556 1557 1557 1557 1557 1557 1557 1557 1557 1557 1557 1557 1557 1557 1557 1557 1557 1558 1558 1558
1528 1529 1530 1531 1530 1529 1529 1527 1525 1526 1529 1531 1532 1533 1534 1536 1538 1540 1542 1543 1545 1547 1548 1550 1551 1553 1554 1554 1556 1556 1557 1557 1558 1558 1557 1557 1557 1557 1558 1558 1558 1558 1558 1558 1558 1558 1558 1558 1558
1529 1527 1529 1530 1530 1530 1530 1533 1525 1523 1525 1527 1529 1530 1532 1534 1536 1538 1540 1542 1544 1546 1547 1549 1551 1552 1553 1554 1555 1556 1557 1558 1558 1558 1558 1558 1558 1558 1558 1558 1559 1559 1559 1559 1559 1559 1559 1559 1559
1526 1528 1528 1528 1528 1528 1527 1529 1524 1521 1522 1522 1525 1527 1529 1532 1534 1536 1538 1541 1543 1545 1546 1548 1550 1551 1552 1553 1554 1555 1557 1557 1557 1558 1558 1558 1558 1558 1558 1559 1559 1559 1559 1559 1559 1559 1559 1559 1559
1527 1528 1527 1526 1525 1533 1528 1529 1527 1519 1520 1520 1523 1525 1527 1530 1532 1535 1537 1539 1541 1543 1545 1547 1549 1550 1551 1552 1553 1555 1556 1556 1557 1558 1558 1558 1558 1558 1559 1559 1559 1560 1560 1560 1560 1560 1560 1559 1559
1526 1528 1533 1533 1534 1531 1525 1528 1524 1517 1518 1520 1521 1523 1525 1528 1530 1533 1535 1537 1540 1542 1544 1545 1547 1549 1550 1551 1553 1554 1555 1556 1557 1557 1558 1558 1558 1559 1559 1559 1559 1560 1560 1560 1560 1560 1560 1560 1560
1523 1524 1533 1539 1537 1529 1526 1526 1519 1517 1518 1520 1521 1522 1524 1526 1528 1531 1533 1535 1538 1540 1542 1544 1546 1547 1549 1550 1552 1553 1554 1555 1556 1556 1557 1558 1558 1558 1559 1559 1559 1560 1560 1560 1560 1561 1561 1561 1561
1522 1522 1521 1525 1527 1531 1525 1520 1516 1516 1517 1518 1520 1521 1523 1525 1527 1529 1532 1534 1536 1538 1540 1542 1544 1546 1547 1549 1550 1552 1553 1554 1555 1555 1556 1557 1557 1558 1558 1559 1559 1560 1560 1560 1561 1561 1561 1561 1561
1520 1520 1524 1526 1534 1535 1528 1523 1519 1515 1516 1516 1518 1520 1522 1524 1526 1528 1530 1532 1535 1537 1539 1541 1543 1544 1546 1548 1549 1550 1551 1553 1553 1554 1555 1556 1557 1558 1558 1559 1559 1560 1560 1561 1561 1561 1561 1561 1561
1522 1523 1521 1522 1523 1530 1533 1525 1511 1513 1514 1516 1518 1520 1521 1523 1525 1527 1529 1531 1533 1536 1537 1539 1541 1543 1545 1546 1548 1549 1550 1551 1552 1553 1554 1555 1556 1557 1558 1558 1559 1560 1560 1561 1561 1561 1561 1561 1562
1517 1517 1519 1525 1525 1523 1526 1523 1511 1513 1515 1517 1518 1519 1521 1522 1524 1526 1528 1530 1532 1534 1536 1538 1539 1541 1543 1544 1546 1547 1548 1550 1551 1552 1553 1554 1555 1556 1557 1558 1558 1559 1559 1560 1560 1561 1561 1561 1561